www.pogodaiklimat.ru

Погода и климат >> Архив погоды >> Ирак >> Эль-Фао


ПОГОДА в Эль-Фао

  • Прогноз погоды в Эль-Фао
  • Монитор погоды в Эль-Фао

АРХИВ ПОГОДЫ в Эль-Фао

Время (UTC), дата Ветер
(напр.,м/с)
 
Видим.   Явления Облачность Т
(С)
Тd
(С)
f
(%)
Тe
(С)
Тes
(С)
Комфортность P
(гПа)
Po
(гПа)
Тmin
(С)
Tmax
(С)
R
(мм)
R24
(мм)
S
(см)
18 10.02 ЮВ 3 10 км 8/4 1200 м
[Cu hum Ac trans Ci fib]
+16.4 +14.3 87 +16 +16 1019.8 1019.6 +20.0
06 11.02 штиль 0 2000 м дымка {дождь} 8/6 1050 м
[Cu Sc Ac trans]
+14.6 +12.8 89 +14 +16 1019.6 1019.4 +12.8 3
09 11.02 СЗ 2 10 км 8/6 1200 м
[Cu med, cong Ac trans]
+17.0 +12.4 74 +17 +21 1018.2 1018.0
12 11.02 СЗ 2 10 км 4/4 1200 м
[Cu med, cong]
+18.0 +10.2 60 +19 +21 1016.6 1016.4
15 11.02 СЗ 3 10 км 1/1 1200 м
[Cu hum]
+16.2 +12.6 79 +16 +16 1016.8 1016.6
18 11.02 СЗ 3 10 км ясно +14.8 +9.0 68 +14 +14 1018.4 1018.2 +18.3
00 12.02 З 3 10 км ясно +11.6 +8.4 81 +10 +10 1019.2 1019.0
03 12.02 З 3 10 км ясно +10.8 +7.9 82 +9 +9 1020.2 1020.0
06 12.02 СЗ 4 10 км ясно +12.6 +8.6 77 +11 +15 1022.0 1021.8 +9.4
09 12.02 СЗ 6 10 км 1/1 1200 м
[Cu hum]
+16.8 +7.8 55 +16 +20 1021.8 1021.6
12 12.02 СЗ 6 10 км 4/4 1200 м
[Cu hum]
+18.0 +6.4 47 +17 +18 1021.2 1021.0
15 12.02 СЗ 4 10 км 3/3 1200 м
[Cu hum]
+17.0 +7.5 54 +17 +17 1022.6 1022.4
18 12.02 СЗ 2 10 км ясно +14.4 +8.7 69 +14 +14 1024.8 1024.6 +18.6
21 12.02 СЗ 2 10 км ясно +13.0 +8.0 72 +12 +12 1025.2 1025.0
00 13.02 СЗ 2 10 км ясно +11.8 +8.2 79 +11 +11 1025.4 1025.2
03 13.02 СЗ 3 10 км ясно +10.6 +7.3 80 +9 +9 1026.2 1026.0
06 13.02 З 3 10 км ясно +13.0 +9.0 77 +12 +17 1028.0 1027.8 +8.6
09 13.02 СЗ 2 10 км 3/0
[Ci fib]
+18.2 +7.2 49 +19 +30 1026.8 1026.6
12 13.02 СЗ 2 10 км 4/0
[Ci sp]
+19.6 +12.5 64 +22 +26 комфорт 1025.0 1024.8
15 13.02 С 2 10 км 3/0
[Ci fib]
+18.0 +5.9 45 +19 +19 1025.2 1025.0
18 13.02 штиль 0 10 км ясно +15.0 +10.9 76 +15 +15 1025.0 1024.8 +21.2
21 13.02 Ю 2 10 км ясно +13.6 +10.2 80 +13 +13 1025.0 1024.8
00 14.02 штиль 0 10 км ясно +12.5 +8.5 77 +12 +12 1024.0 1023.8
03 14.02 С 2 10 км 3/0
[Ac trans Ci fib]
+11.6 +7.5 76 +11 +11 1023.6 1023.4
06 14.02 С 4 10 км 3/0
[Ac trans Ci fib]
+15.4 +8.8 65 +14 +18 1024.8 1024.6 +10.0
09 14.02 ЮВ 2 10 км 6/1 1200 м
[Cu hum Ac trans Ci fib]
+19.0 +7.8 48 +20 +28 1023.4 1023.2
12 14.02 ЮВ 3 10 км 8/1 1200 м
[Cu hum Ac trans Ci fib]
+18.0 +9.8 59 +18 +20 1020.6 1020.4
15 14.02 ЮВ 3 10 км 9/6 1050 м
[Cu med, cong Ac trans]
+17.0 +11.5 70 +17 +17 1019.6 1019.4
21 14.02 штиль 0 6000 м слаб. ливневой дождь 8/8 1050 м
[Cu Sc]
+15.8 +13.7 87 +16 +16 1020.0 1019.8
03 15.02 ЮВ 8 10 км 4/4 1200 м
[Cu med, cong Ac trans]
+16.6 +14.9 90 +15 +15 1017.6 1017.4
06 15.02 ЮВ 4 6000 м слаб. ливневой дождь 5/4 750 м
[Cb cap Ac trans Ci fib]
+17.6 +15.9 90 +17 +20 1018.0 1017.8 +14.0 3
09 15.02 ЮВ 7 10 км 4/4 750 м
[Cb cap Ac trans]
+20.2 +14.8 71 +22 +24 комфорт 1017.8 1017.6
12 15.02 ЮВ 7 10 км 9/5 750 м
[Cb cap Ac As Ci fib]
+19.0 +14.9 77 +20 +20 1016.0 1015.8
15 15.02 ЮВ 5 10 км 10/6 750 м
[Cb cap Ac As]
+18.2 +15.9 86 +18 +18 1016.2 1016.0
18 15.02 ЮВ 5 10 км 10/5 750 м
[Cb cap Ac As]
+18.0 +15.6 86 +18 +18 1017.4 1017.2 +20.6
21 15.02 ЮВ 2 10 км 9/4 1200 м
[Cu hum Ac trans Ci fib]
+17.8 +14.7 82 +18 +18 1017.6 1017.4
00 16.02 штиль 0 10 км 8/4 1200 м
[Cu hum Ac trans Ci fib]
+16.4 +15.0 91 +16 +16 1017.6 1017.4
03 16.02 СЗ 2 5000 м слаб. дождь 10/5 750 м
[Cb cap Ac As]
+16.0 +14.3 90 +16 +16 1018.8 1018.6
06 16.02 С 3 10 км {дождь} 9/8 900 м
[Cu Sc Ac trans]
+15.2 +7.6 60 +15 +15 1021.0 1020.8 +13.2 0.0
09 16.02 СЗ 3 10 км 4/4 1200 м
[Cu hum]
+19.0 +2.1 32 +19 +26 1021.0 1020.8
12 16.02 СЗ 3 10 км 3/3 1200 м
[Cu hum]
+19.5 -1.3 25 +20 +22 1019.8 1019.6
15 16.02 С 3 10 км 1/1 1200 м
[Cu hum]
+16.8 +4.1 43 +17 +17 1021.0 1020.8
18 16.02 С 2 10 км 1/1 1200 м
[Cu hum]
+14.8 +6.7 58 +15 +15 1023.0 1022.8 +21.0
21 16.02 СЗ 2 10 км ясно +12.6 +5.9 64 +12 +12 1022.6 1022.4
00 17.02 СЗ 2 10 км ясно +11.2 +6.1 71 +10 +10 1022.6 1022.4
03 17.02 СЗ 2 10 км ясно +10.4 +5.2 70 +9 +9 1022.8 1022.6
06 17.02 СЗ 2 10 км ясно +13.0 +6.4 64 +12 +19 1024.2 1024.0 +8.5
09 17.02 СЗ 3 10 км ясно +18.6 +5.1 41 +19 +29 1023.4 1023.2
12 17.02 СЗ 3 10 км 3/3 1200 м
[Cu hum]
+20.6 +5.3 37 +22 +25 комфорт 1020.8 1020.6
15 17.02 штиль 0 10 км 1/1 1200 м
[Cu hum]
+19.2 +12.1 63 +20 +20 1020.4 1020.2

 

Местоположение метеостанции Эль-Фао (Ирак): широта 29.98 долгота 48.50 высота над уровнем моря 2 м.

В архиве по умолчанию представлена погода в Эль-Фао за последнюю неделю. Архивные данные за месяц целиком и за предыдущие месяцы, начиная с января 2011 года, Вы можете получить, выбрав интересующий диапазон дат из раскрывающегося списка и нажав кнопку "Ввод!".


*Определитесь, кто Вы:
робот инопланетянин человек

Внимание! Время в таблицах - всемирное. Для получения местного времени необходимо прибавить поправку, которая равна 3 ч.

Смотрите также архив погоды в соседних городах и на ближайших метеорологических станциях:

Погода на Бубияне (Кувейт) (26 км)
Погода в Абадане (Иран) (50 км)
Погода Остров Файлака (Кувейт) (61 км)
Погода на Метеостанции Sabriyah (Кувейт) (68 км)
Погода в Абдали (Кувейт) (78 км)
Погода в Аль-Шуаиба (Кувейт) (80 км)
Погода в Кувейт Сити (Кувейт) (84 км)
Погода в Басре аэропорт (Ирак) (92 км)
Погода на Экспериментальной ферме (Кувейт) (94 км)
Погода в Басре (Ирак) (95 км)

Пояснения к столбцам:

Ветер - указаны скорость ветра в м/с - средняя за 10 мин, порывы в срок и между сроками (в фигурных скобках) и направление, откуда дует ветер: С - северный, СВ - северо-восточный, В - восточный, ЮВ - юго-восточный, Ю - южный, ЮЗ - юго-западный, З - западный, СЗ - северо-западный.
Видимость - горизонтальная дальность видимости в метрах или километрах. При видимости от 1 до 10 км при отсутствии осадков обычно наблюдается дымка, при ухудшении видимости до 1 км и менее - туман. В сухую погоду видимость может ухудшаться дымом, пылью или мглою.
Явления - указаны атмосферные явления, наблюдавшиеся в срок или в последний час перед сроком; фигурными скобками обозначены явления, наблюдавшиеся между сроками (за 1-3 часа до срока); квадратными скобками обозначены град или гололедные отложения с указанием их диаметра в мм.
Облачность - указаны через наклонную черту общая и нижняя облачность в баллах и высота нижней границы облаков в метрах; квадратными скобками обозначены формы облаков: Ci - перистые, Cs - перисто-слоистые, Cc - перисто-кучевые, Ac - высококучевые, As - высокослоистые, Sc - слоисто-кучевые, Ns - слоисто-дождевые, Cu - кучевые, Cb - кучево-дождевые. Подробнее классификацию облаков см. в Атласе облаков (PDF).
T - Температура воздуха - температура, измеренная на высоте 2 м над землей.
Td - Температура точки росы - температура, при понижении до которой содержащийся в воздухе водяной пар достигнет насыщения.
f - Относительная влажность воздуха - влажноcть воздуха, измеренная на высоте 2 м над землей.
Te - Эффективная температура - температура, которую ощущает одетый по сезону человек в тени. Характеристика душности погоды. При расчете учитывается влияние влажности воздуха и скорости ветра на теплоощущения человека.
Tes - Эффективная температура на солнце - температура, которую ощущает человек, с поправкой на солнечный нагрев. Характеристика знойности погоды. Зависит от высоты солнца над горизонтом, облачности и скорости ветра. Ночью, в пасмурную погоду, а также при ветре 12 м/с и более поправка равна нулю.
P - Атмосферное давление - приведенное к уровню моря атмосферное давление.
Po - Атмосферное давление - измеренное на уровне метеостанции атмосферное давление.
Tmin - Минимальная температура - минимум температуры воздуха на высоте 2 м над землей.
Tmax - Максимальная температура - максимум температуры воздуха на высоте 2 м над землей.
R - Количество осадков - Количество выпавших осадков за период времени, мм. При наведении курсора мыши на число - период времени, за который выпало указанное количество осадков.
R24 - Количество осадков - Количество выпавших осадков за 24 часа, мм.
S - Снежный покров - Высота снежного покрова, см. При наведении курсора мыши на число - состояние снежного покрова и степень покрытия местности в баллах.